Location: Lecco
(45.8566°N, 9.3977°E)
Time: 03:53:56
(UTC+02:00)

Transit 4A - Pass Details

Date: 23 August 2020
Orbit: 863 x 982 km, 66.8° (Epoch: 23 September)

Event Time Altitude Azimuth Distance (km) Brightness Sun altitude
Rises 13:06:17 0° 323° (NW) 3,631 10.7 55.1°
Reaches altitude 10° 13:10:41 10° 352° (N) 2,709 10.1 55.2°
Maximum altitude 13:13:17 13° 16° (NNE) 2,533 10.0 55.2°
Drops below altitude 10° 13:15:55 10° 41° (NE) 2,729 10.2 55.3°
Sets 13:20:23 0° 70° (ENE) 3,686 10.9 55.3°
